QPF
0.00 0.00 0.00 0.00 0.00 0.00 0.00 0.00 0.00 0.00 0.00 0.00 0.00 0.00 0.01 0.01 0.00 0.01 0.00 0.00 0.00 0.00 0.00 0.01 0.01 0.02 0.03 0.03 0.03 0.03 0.03 0.04 0.03 0.04 0.05 0.04 0.04 0.04 0.04 0.04 0.04 0.05 0.06 0.07 0.06 0.06 0.05 0.05 0.06
0.00 0.00 0.00 0.00 0.00 0.00 0.00 0.00 0.00 0.00 0.00 0.00 0.00 0.00 0.00 0.00 0.00 0.00 0.00 0.00 0.00 0.00 0.00 0.00 0.01 0.02 0.04 0.04 0.03 0.03 0.03 0.03 0.04 0.06 0.08 0.06 0.05 0.04 0.04 0.04 0.05 0.06 0.07 0.08 0.06 0.06 0.06 0.07 0.08
0.00 0.00 0.00 0.00 0.00 0.00 0.00 0.00 0.00 0.00 0.00 0.00 0.00 0.00 0.00 0.00 0.00 0.00 0.00 0.00 0.00 0.00 0.00 0.00 0.01 0.01 0.02 0.03 0.03 0.03 0.03 0.04 0.05 0.08 0.16 0.13 0.07 0.06 0.05 0.05 0.05 0.06 0.07 0.08 0.07 0.07 0.08 0.07 0.11
0.00 0.00 0.00 0.00 0.00 0.00 0.00 0.00 0.00 0.00 0.00 0.00 0.00 0.00 0.00 0.00 0.00 0.00 0.00 0.00 0.00 0.00 0.00 0.01 0.01 0.01 0.01 0.01 0.02 0.03 0.03 0.05 0.06 0.08 0.12 0.17 0.10 0.08 0.07 0.05 0.06 0.07 0.08 0.08 0.08 0.08 0.11 0.15 0.13
0.00 0.00 0.00 0.00 0.00 0.00 0.00 0.00 0.00 0.00 0.00 0.00 0.00 0.00 0.00 0.00 0.00 0.00 0.00 0.00 0.00 0.00 0.00 0.00 0.01 0.02 0.02 0.02 0.02 0.03 0.05 0.06 0.07 0.07 0.07 0.14 0.12 0.08 0.07 0.06 0.07 0.07 0.07 0.09 0.09 0.07 0.13 0.14 0.10
0.00 0.00 0.00 0.00 0.00 0.00 0.00 0.00 0.00 0.00 0.00 0.00 0.00 0.00 0.00 0.00 0.00 0.00 0.01 0.00 0.00 0.00 0.00 0.01 0.01 0.01 0.02 0.02 0.02 0.03 0.06 0.06 0.07 0.13 0.09 0.09 0.13 0.09 0.07 0.07 0.07 0.08 0.09 0.11 0.12 0.11 0.12 0.12 0.11
0.00 0.00 0.00 0.00 0.00 0.00 0.00 0.00 0.00 0.00 0.00 0.00 0.00 0.00 0.01 0.01 0.01 0.00 0.01 0.01 0.00 0.01 0.01 0.01 0.01 0.01 0.01 0.03 0.05 0.05 0.06 0.08 0.08 0.13 0.17 0.10 0.10 0.09 0.08 0.10 0.10 0.09 0.10 0.11 0.16 0.21 0.16 0.14 0.13
0.00 0.00 0.00 0.00 0.00 0.00 0.00 0.00 0.00 0.00 0.00 0.00 0.00 0.00 0.01 0.01 0.01 0.01 0.02 0.01 0.02 0.03 0.03 0.02 0.01 0.02 0.02 0.04 0.06 0.06 0.07 0.09 0.09 0.08 0.17 0.15 0.14 0.13 0.14 0.15 0.14 0.10 0.09 0.09 0.14 0.18 0.19 0.17 0.15
0.00 0.00 0.00 0.00 0.00 0.00 0.00 0.00 0.00 0.00 0.00 0.00 0.01 0.01 0.03 0.02 0.02 0.02 0.02 0.02 0.04 0.05 0.04 0.03 0.02 0.02 0.02 0.04 0.05 0.06 0.13 0.21 0.16 0.09 0.14 0.16 0.18 0.21 0.19 0.22 0.17 0.11 0.10 0.09 0.11 0.17 0.20 0.18 0.15
0.00 0.00 0.00 0.00 0.00 0.00 0.00 0.00 0.00 0.00 0.00 0.00 0.00 0.01 0.01 0.06 0.04 0.03 0.02 0.07 0.18 0.10 0.05 0.05 0.03 0.02 0.02 0.02 0.04 0.09 0.11 0.14 0.13 0.11 0.10 0.12 0.16 0.20 0.18 0.16 0.15 0.11 0.10 0.10 0.09 0.11 0.13 0.14 0.13
0.00 0.00 0.00 0.00 0.00 0.00 0.00 0.00 0.00 0.00 0.00 0.00 0.00 0.00 0.02 0.05 0.03 0.05 0.04 0.05 0.08 0.05 0.03 0.03 0.03 0.02 0.03 0.03 0.03 0.05 0.08 0.11 0.11 0.11 0.11 0.09 0.11 0.15 0.14 0.11 0.11 0.10 0.10 0.11 0.09 0.07 0.09 0.11 0.10
0.00 0.00 0.00 0.00 0.00 0.00 0.00 0.00 0.00 0.00 0.00 0.00 0.00 0.00 0.01 0.02 0.03 0.05 0.05 0.04 0.02 0.02 0.02 0.02 0.03 0.03 0.03 0.04 0.04 0.04 0.06 0.12 0.12 0.07 0.06 0.06 0.07 0.11 0.11 0.09 0.06 0.06 0.07 0.07 0.07 0.07 0.08 0.10 0.08
0.00 0.00 0.00 0.00 0.00 0.00 0.00 0.00 0.00 0.00 0.00 0.00 0.00 0.00 0.01 0.02 0.04 0.06 0.07 0.05 0.03 0.02 0.02 0.02 0.04 0.04 0.07 0.08 0.06 0.05 0.06 0.08 0.11 0.05 0.05 0.04 0.06 0.08 0.08 0.07 0.06 0.04 0.03 0.03 0.04 0.05 0.07 0.08 0.07
0.00 0.00 0.00 0.00 0.00 0.00 0.00 0.00 0.00 0.00 0.00 0.00 0.00 0.01 0.01 0.02 0.05 0.10 0.11 0.07 0.05 0.03 0.02 0.02 0.04 0.03 0.05 0.09 0.09 0.10 0.06 0.04 0.05 0.05 0.05 0.06 0.06 0.06 0.07 0.08 0.07 0.05 0.03 0.03 0.03 0.04 0.06 0.08 0.07
0.00 0.00 0.00 0.00 0.00 0.00 0.00 0.00 0.00 0.00 0.00 0.00 0.00 0.01 0.01 0.03 0.04 0.07 0.05 0.05 0.05 0.04 0.04 0.02 0.03 0.03 0.03 0.03 0.05 0.07 0.06 0.04 0.04 0.06 0.04 0.05 0.05 0.05 0.06 0.08 0.07 0.05 0.04 0.03 0.03 0.03 0.05 0.06 0.06
0.00 0.00 0.00 0.00 0.00 0.00 0.00 0.00 0.00 0.00 0.00 0.00 0.00 0.01 0.01 0.02 0.02 0.02 0.03 0.04 0.04 0.03 0.03 0.02 0.02 0.03 0.02 0.02 0.02 0.04 0.04 0.05 0.04 0.05 0.04 0.04 0.04 0.03 0.05 0.07 0.06 0.05 0.05 0.04 0.04 0.03 0.05 0.06 0.07
0.01 0.00 0.00 0.00 0.00 0.00 0.00 0.00 0.00 0.00 0.00 0.00 0.00 0.01 0.01 0.02 0.02 0.02 0.01 0.02 0.02 0.02 0.03 0.02 0.02 0.02 0.02 0.02 0.03 0.03 0.03 0.03 0.03 0.03 0.04 0.04 0.04 0.04 0.05 0.06 0.07 0.06 0.06 0.05 0.03 0.04 0.07 0.08 0.08
0.00 0.00 0.00 0.00 0.00 0.00 0.01 0.00 0.00 0.00 0.00 0.00 0.00 0.00 0.01 0.01 0.02 0.02 0.01 0.01 0.01 0.02 0.02 0.02 0.02 0.02 0.02 0.02 0.02 0.02 0.02 0.02 0.02 0.03 0.04 0.03 0.03 0.03 0.04 0.06 0.07 0.07 0.06 0.06 0.05 0.05 0.08 0.10 0.07
0.00 0.01 0.00 0.00 0.00 0.01 0.01 0.01 0.00 0.00 0.00 0.00 0.00 0.01 0.01 0.02 0.02 0.02 0.01 0.01 0.01 0.02 0.02 0.03 0.03 0.02 0.02 0.02 0.02 0.02 0.03 0.03 0.03 0.03 0.04 0.03 0.04 0.04 0.06 0.07 0.08 0.07 0.07 0.07 0.06 0.05 0.08 0.08 0.05
0.01 0.01 0.00 0.00 0.00 0.01 0.01 0.01 0.00 0.00 0.00 0.00 0.00 0.01 0.01 0.01 0.01 0.02 0.01 0.01 0.02 0.02 0.01 0.02 0.03 0.03 0.03 0.03 0.03 0.03 0.03 0.03 0.03 0.03 0.03 0.04 0.04 0.06 0.06 0.07 0.08 0.07 0.08 0.07 0.06 0.06 0.07 0.06 0.04
0.01 0.01 0.00 0.00 0.01 0.01 0.02 0.01 0.01 0.01 0.00 0.01 0.01 0.01 0.01 0.01 0.02 0.02 0.02 0.02 0.01 0.02 0.02 0.02 0.03 0.03 0.04 0.04 0.04 0.03 0.03 0.02 0.02 0.03 0.04 0.04 0.05 0.08 0.08 0.06 0.07 0.08 0.07 0.07 0.07 0.07 0.07 0.05 0.04
0.01 0.00 0.00 0.01 0.02 0.01 0.01 0.02 0.01 0.01 0.01 0.01 0.01 0.02 0.02 0.02 0.02 0.02 0.02 0.02 0.01 0.01 0.02 0.04 0.05 0.04 0.04 0.04 0.04 0.04 0.05 0.05 0.05 0.06 0.07 0.07 0.07 0.09 0.09 0.09 0.08 0.09 0.08 0.07 0.06 0.06 0.07 0.06 0.04
0.01 0.01 0.01 0.02 0.02 0.02 0.01 0.02 0.02 0.01 0.01 0.01 0.00 0.01 0.01 0.02 0.03 0.02 0.02 0.02 0.02 0.02 0.02 0.05 0.06 0.05 0.04 0.05 0.05 0.06 0.07 0.07 0.07 0.07 0.07 0.07 0.07 0.08 0.09 0.11 0.11 0.11 0.08 0.08 0.08 0.08 0.08 0.07 0.06
0.01 0.01 0.02 0.02 0.02 0.02 0.01 0.02 0.01 0.01 0.01 0.01 0.01 0.01 0.01 0.01 0.02 0.03 0.03 0.03 0.03 0.02 0.02 0.03 0.04 0.04 0.04 0.05 0.05 0.06 0.06 0.06 0.06 0.06 0.06 0.07 0.10 0.09 0.07 0.08 0.10 0.11 0.09 0.09 0.10 0.11 0.09 0.09 0.08
0.01 0.02 0.03 0.02 0.02 0.02 0.01 0.02 0.02 0.02 0.01 0.01 0.01 0.01 0.02 0.02 0.02 0.02 0.02 0.02 0.02 0.02 0.02 0.02 0.03 0.03 0.04 0.04 0.04 0.04 0.04 0.05 0.06 0.08 0.05 0.07 0.11 0.10 0.07 0.06 0.08 0.09 0.08 0.08 0.09 0.10 0.10 0.11 0.12
0.01 0.01 0.03 0.02 0.01 0.01 0.01 0.02 0.02 0.02 0.02 0.01 0.01 0.01 0.02 0.02 0.02 0.02 0.03 0.04 0.03 0.03 0.02 0.02 0.02 0.02 0.03 0.04 0.04 0.04 0.04 0.04 0.05 0.05 0.05 0.05 0.07 0.08 0.07 0.05 0.06 0.07 0.06 0.06 0.08 0.09 0.10 0.12 0.12
0.01 0.01 0.02 0.02 0.02 0.02 0.02 0.03 0.02 0.02 0.02 0.02 0.01 0.03 0.04 0.02 0.02 0.02 0.03 0.05 0.04 0.05 0.04 0.03 0.03 0.03 0.03 0.03 0.03 0.04 0.03 0.04 0.04 0.03 0.04 0.03 0.04 0.05 0.05 0.04 0.04 0.04 0.05 0.06 0.07 0.09 0.10 0.11 0.11
0.01 0.01 0.01 0.02 0.03 0.03 0.02 0.03 0.03 0.04 0.04 0.03 0.01 0.03 0.07 0.05 0.02 0.02 0.03 0.04 0.04 0.04 0.05 0.05 0.04 0.03 0.03 0.03 0.03 0.03 0.02 0.03 0.04 0.03 0.03 0.02 0.03 0.02 0.03 0.03 0.04 0.04 0.04 0.05 0.05 0.05 0.05 0.07 0.08
0.01 0.01 0.01 0.03 0.03 0.03 0.03 0.04 0.04 0.03 0.04 0.04 0.03 0.03 0.06 0.06 0.02 0.02 0.02 0.02 0.04 0.04 0.04 0.04 0.04 0.03 0.03 0.03 0.03 0.03 0.02 0.02 0.03 0.03 0.03 0.03 0.03 0.03 0.03 0.04 0.06 0.04 0.04 0.03 0.04 0.03 0.04 0.07 0.08
0.01 0.01 0.02 0.03 0.03 0.02 0.05 0.05 0.03 0.02 0.03 0.03 0.03 0.03 0.02 0.03 0.03 0.02 0.02 0.02 0.02 0.03 0.03 0.03 0.03 0.03 0.03 0.03 0.03 0.02 0.01 0.01 0.02 0.02 0.02 0.03 0.03 0.03 0.03 0.04 0.05 0.04 0.03 0.03 0.04 0.04 0.04 0.06 0.06
MSLP
1006.96 1007.20 1007.62 1008.16 1008.72 1009.25 1009.70 1010.02 1010.25 1010.41 1010.55 1010.71 1010.90 1011.12 1011.34 1011.52 1011.62 1011.63 1011.56 1011.45 1011.34 1011.30 1011.35 1011.50 1011.74 1012.01 1012.25 1012.40 1012.45 1012.38 1012.22 1012.03 1011.86 1011.77 1011.80 1011.95 1012.18 1012.47 1012.76 1013.01 1013.20 1013.33 1013.41 1013.47 1013.54 1013.64 1013.76 1013.92 1014.08
1007.08 1007.43 1007.93 1008.51 1009.07 1009.56 1009.92 1010.15 1010.26 1010.30 1010.33 1010.39 1010.51 1010.69 1010.89 1011.08 1011.22 1011.29 1011.30 1011.27 1011.25 1011.28 1011.40 1011.62 1011.91 1012.22 1012.50 1012.69 1012.76 1012.71 1012.56 1012.37 1012.20 1012.09 1012.10 1012.20 1012.40 1012.63 1012.86 1013.05 1013.19 1013.27 1013.32 1013.37 1013.45 1013.58 1013.76 1013.96 1014.17
1007.39 1007.85 1008.41 1008.99 1009.53 1009.94 1010.20 1010.31 1010.29 1010.22 1010.15 1010.13 1010.19 1010.34 1010.53 1010.74 1010.91 1011.04 1011.10 1011.14 1011.19 1011.29 1011.47 1011.73 1012.07 1012.42 1012.73 1012.95 1013.05 1013.02 1012.90 1012.72 1012.55 1012.43 1012.41 1012.47 1012.60 1012.77 1012.93 1013.06 1013.14 1013.18 1013.21 1013.26 1013.37 1013.53 1013.75 1014.00 1014.24
1007.82 1008.36 1008.96 1009.53 1010.00 1010.32 1010.47 1010.47 1010.35 1010.18 1010.03 1009.96 1009.99 1010.11 1010.30 1010.52 1010.72 1010.88 1010.99 1011.08 1011.18 1011.32 1011.54 1011.84 1012.21 1012.58 1012.91 1013.16 1013.28 1013.27 1013.17 1013.00 1012.84 1012.72 1012.67 1012.69 1012.78 1012.88 1012.98 1013.05 1013.09 1013.10 1013.13 1013.19 1013.32 1013.51 1013.76 1014.03 1014.27
1008.26 1008.85 1009.45 1009.99 1010.39 1010.62 1010.67 1010.57 1010.38 1010.15 1009.97 1009.87 1009.89 1010.02 1010.22 1010.45 1010.67 1010.85 1010.98 1011.10 1011.23 1011.40 1011.64 1011.96 1012.33 1012.71 1013.04 1013.28 1013.41 1013.41 1013.31 1013.16 1013.00 1012.89 1012.83 1012.83 1012.88 1012.95 1013.01 1013.04 1013.05 1013.06 1013.09 1013.16 1013.30 1013.51 1013.76 1014.01 1014.22
1008.62 1009.21 1009.78 1010.26 1010.58 1010.73 1010.71 1010.56 1010.33 1010.09 1009.91 1009.84 1009.88 1010.03 1010.25 1010.49 1010.73 1010.92 1011.08 1011.21 1011.35 1011.54 1011.78 1012.10 1012.45 1012.80 1013.11 1013.33 1013.43 1013.42 1013.32 1013.17 1013.02 1012.91 1012.86 1012.86 1012.90 1012.96 1013.00 1013.03 1013.03 1013.04 1013.07 1013.16 1013.30 1013.49 1013.71 1013.91 1014.06
1008.80 1009.36 1009.86 1010.26 1010.51 1010.59 1010.53 1010.37 1010.16 1009.96 1009.84 1009.82 1009.92 1010.11 1010.37 1010.64 1010.89 1011.10 1011.26 1011.41 1011.56 1011.75 1011.99 1012.28 1012.60 1012.91 1013.16 1013.33 1013.39 1013.34 1013.22 1013.07 1012.92 1012.82 1012.78 1012.80 1012.85 1012.91 1012.97 1013.00 1013.01 1013.03 1013.06 1013.14 1013.26 1013.43 1013.59 1013.73 1013.80
1008.82 1009.29 1009.70 1010.00 1010.18 1010.22 1010.15 1010.01 1009.86 1009.75 1009.72 1009.79 1009.97 1010.23 1010.53 1010.84 1011.11 1011.34 1011.53 1011.69 1011.85 1012.04 1012.27 1012.54 1012.82 1013.07 1013.25 1013.35 1013.34 1013.24 1013.09 1012.92 1012.78 1012.69 1012.66 1012.70 1012.77 1012.85 1012.92 1012.96 1012.98 1013.00 1013.03 1013.09 1013.18 1013.30 1013.40 1013.46 1013.45
1008.69 1009.04 1009.34 1009.55 1009.66 1009.68 1009.62 1009.54 1009.47 1009.46 1009.54 1009.72 1009.99 1010.33 1010.69 1011.04 1011.36 1011.62 1011.83 1012.02 1012.20 1012.41 1012.63 1012.88 1013.11 1013.29 1013.41 1013.43 1013.35 1013.20 1013.01 1012.82 1012.67 1012.59 1012.58 1012.64 1012.72 1012.81 1012.89 1012.93 1012.95 1012.96 1012.97 1013.00 1013.06 1013.12 1013.16 1013.16 1013.07
1008.49 1008.73 1008.91 1009.02 1009.07 1009.07 1009.04 1009.03 1009.05 1009.15 1009.34 1009.63 1009.99 1010.40 1010.82 1011.23 1011.58 1011.88 1012.14 1012.37 1012.59 1012.81 1013.04 1013.27 1013.47 1013.60 1013.66 1013.61 1013.48 1013.28 1013.05 1012.84 1012.69 1012.61 1012.61 1012.67 1012.76 1012.85 1012.91 1012.94 1012.94 1012.92 1012.91 1012.90 1012.91 1012.93 1012.92 1012.85 1012.72
1008.32 1008.43 1008.51 1008.54 1008.54 1008.53 1008.53 1008.57 1008.67 1008.86 1009.14 1009.51 1009.95 1010.42 1010.89 1011.34 1011.74 1012.09 1012.40 1012.68 1012.94 1013.20 1013.45 1013.68 1013.86 1013.96 1013.97 1013.88 1013.71 1013.48 1013.23 1013.02 1012.86 1012.78 1012.78 1012.83 1012.91 1012.98 1013.02 1013.02 1012.98 1012.93 1012.87 1012.82 1012.79 1012.76 1012.71 1012.61 1012.44
1008.24 1008.26 1008.24 1008.21 1008.17 1008.15 1008.17 1008.24 1008.40 1008.64 1008.98 1009.40 1009.87 1010.38 1010.89 1011.37 1011.82 1012.22 1012.58 1012.91 1013.22 1013.52 1013.80 1014.04 1014.22 1014.32 1014.31 1014.21 1014.02 1013.78 1013.54 1013.32 1013.17 1013.10 1013.10 1013.14 1013.20 1013.23 1013.24 1013.19 1013.10 1012.99 1012.89 1012.80 1012.72 1012.66 1012.57 1012.45 1012.26
1008.29 1008.24 1008.17 1008.09 1008.03 1008.00 1008.02 1008.10 1008.27 1008.52 1008.87 1009.29 1009.77 1010.28 1010.81 1011.32 1011.80 1012.24 1012.65 1013.03 1013.40 1013.74 1014.05 1014.31 1014.51 1014.61 1014.61 1014.52 1014.34 1014.13 1013.90 1013.71 1013.58 1013.52 1013.51 1013.54 1013.58 1013.58 1013.54 1013.44 1013.30 1013.14 1012.98 1012.84 1012.73 1012.63 1012.52 1012.38 1012.17
1008.48 1008.40 1008.30 1008.20 1008.12 1008.08 1008.08 1008.15 1008.29 1008.51 1008.82 1009.20 1009.65 1010.15 1010.66 1011.18 1011.68 1012.16 1012.61 1013.04 1013.44 1013.82 1014.16 1014.45 1014.66 1014.79 1014.81 1014.75 1014.61 1014.44 1014.25 1014.10 1014.00 1013.96 1013.96 1013.99 1014.00 1013.98 1013.90 1013.76 1013.57 1013.35 1013.15 1012.96 1012.81 1012.67 1012.54 1012.37 1012.15
1008.76 1008.68 1008.59 1008.50 1008.41 1008.35 1008.33 1008.35 1008.43 1008.59 1008.82 1009.14 1009.53 1009.98 1010.47 1010.99 1011.50 1012.01 1012.49 1012.95 1013.38 1013.78 1014.14 1014.44 1014.68 1014.83 1014.89 1014.87 1014.79 1014.66 1014.53 1014.43 1014.36 1014.35 1014.36 1014.39 1014.40 1014.36 1014.26 1014.09 1013.86 1013.61 1013.36 1013.13 1012.93 1012.76 1012.58 1012.38 1012.13
1009.08 1009.04 1008.98 1008.90 1008.83 1008.76 1008.70 1008.66 1008.66 1008.72 1008.86 1009.08 1009.40 1009.80 1010.26 1010.77 1011.29 1011.82 1012.32 1012.80 1013.24 1013.66 1014.02 1014.34 1014.59 1014.76 1014.86 1014.89 1014.86 1014.79 1014.71 1014.65 1014.63 1014.64 1014.68 1014.72 1014.73 1014.69 1014.58 1014.39 1014.15 1013.87 1013.58 1013.31 1013.07 1012.84 1012.63 1012.39 1012.09
1009.40 1009.40 1009.39 1009.35 1009.30 1009.22 1009.11 1009.01 1008.91 1008.86 1008.89 1009.02 1009.26 1009.60 1010.04 1010.54 1011.07 1011.61 1012.14 1012.63 1013.08 1013.50 1013.86 1014.18 1014.44 1014.64 1014.77 1014.84 1014.85 1014.84 1014.81 1014.79 1014.80 1014.83 1014.88 1014.93 1014.96 1014.92 1014.82 1014.64 1014.39 1014.10 1013.79 1013.48 1013.19 1012.91 1012.65 1012.36 1012.03
1009.65 1009.72 1009.76 1009.78 1009.75 1009.66 1009.52 1009.34 1009.14 1008.98 1008.89 1008.92 1009.08 1009.37 1009.78 1010.28 1010.84 1011.40 1011.95 1012.46 1012.92 1013.33 1013.70 1014.02 1014.28 1014.50 1014.66 1014.77 1014.83 1014.85 1014.86 1014.87 1014.89 1014.94 1014.99 1015.05 1015.08 1015.06 1014.98 1014.81 1014.57 1014.28 1013.95 1013.61 1013.28 1012.96 1012.65 1012.33 1011.96
1009.82 1009.95 1010.06 1010.13 1010.13 1010.04 1009.85 1009.59 1009.29 1009.01 1008.81 1008.74 1008.83 1009.07 1009.47 1009.98 1010.56 1011.17 1011.75 1012.28 1012.76 1013.19 1013.56 1013.88 1014.16 1014.40 1014.59 1014.73 1014.83 1014.89 1014.92 1014.94 1014.96 1015.00 1015.05 1015.10 1015.13 1015.12 1015.05 1014.91 1014.68 1014.40 1014.07 1013.71 1013.35 1013.00 1012.66 1012.31 1011.92
1009.88 1010.07 1010.25 1010.37 1010.39 1010.29 1010.06 1009.72 1009.32 1008.92 1008.61 1008.44 1008.45 1008.66 1009.06 1009.59 1010.21 1010.87 1011.50 1012.08 1012.59 1013.04 1013.43 1013.77 1014.08 1014.35 1014.58 1014.76 1014.89 1014.98 1015.02 1015.04 1015.05 1015.06 1015.08 1015.11 1015.13 1015.12 1015.06 1014.93 1014.73 1014.46 1014.14 1013.78 1013.41 1013.05 1012.69 1012.33 1011.94
1009.82 1010.07 1010.30 1010.47 1010.52 1010.40 1010.12 1009.69 1009.18 1008.67 1008.24 1007.98 1007.93 1008.11 1008.50 1009.07 1009.74 1010.46 1011.16 1011.80 1012.37 1012.87 1013.29 1013.68 1014.02 1014.33 1014.60 1014.83 1015.00 1015.11 1015.17 1015.18 1015.16 1015.14 1015.12 1015.11 1015.10 1015.08 1015.02 1014.90 1014.72 1014.47 1014.17 1013.82 1013.46 1013.09 1012.74 1012.39 1012.03
1009.66 1009.95 1010.23 1010.43 1010.48 1010.35 1010.01 1009.50 1008.88 1008.25 1007.71 1007.35 1007.24 1007.39 1007.79 1008.39 1009.13 1009.93 1010.71 1011.43 1012.07 1012.63 1013.12 1013.55 1013.95 1014.31 1014.64 1014.91 1015.12 1015.26 1015.33 1015.33 1015.29 1015.23 1015.16 1015.10 1015.05 1015.00 1014.93 1014.83 1014.66 1014.43 1014.15 1013.83 1013.48 1013.14 1012.80 1012.48 1012.16
1009.41 1009.72 1010.03 1010.26 1010.31 1010.15 1009.76 1009.16 1008.44 1007.69 1007.04 1006.60 1006.42 1006.54 1006.96 1007.60 1008.41 1009.28 1010.15 1010.96 1011.69 1012.32 1012.87 1013.36 1013.82 1014.23 1014.61 1014.94 1015.20 1015.37 1015.45 1015.45 1015.39 1015.29 1015.17 1015.07 1014.98 1014.90 1014.81 1014.70 1014.55 1014.34 1014.09 1013.79 1013.47 1013.15 1012.84 1012.55 1012.27
1009.09 1009.42 1009.75 1009.98 1010.03 1009.84 1009.39 1008.72 1007.90 1007.05 1006.31 1005.78 1005.55 1005.65 1006.07 1006.76 1007.63 1008.59 1009.55 1010.44 1011.25 1011.95 1012.56 1013.11 1013.61 1014.08 1014.50 1014.88 1015.17 1015.38 1015.48 1015.49 1015.41 1015.29 1015.14 1014.99 1014.86 1014.76 1014.65 1014.54 1014.40 1014.21 1013.97 1013.70 1013.41 1013.11 1012.82 1012.56 1012.30
1008.75 1009.08 1009.42 1009.65 1009.69 1009.47 1008.98 1008.24 1007.34 1006.41 1005.59 1005.00 1004.72 1004.80 1005.23 1005.96 1006.89 1007.92 1008.96 1009.93 1010.80 1011.56 1012.22 1012.81 1013.34 1013.83 1014.29 1014.69 1015.02 1015.26 1015.39 1015.41 1015.34 1015.20 1015.03 1014.87 1014.71 1014.58 1014.47 1014.35 1014.22 1014.04 1013.83 1013.57 1013.29 1013.00 1012.72 1012.46 1012.22
1008.42 1008.75 1009.09 1009.32 1009.36 1009.12 1008.59 1007.81 1006.86 1005.87 1005.00 1004.36 1004.05 1004.12 1004.56 1005.31 1006.29 1007.37 1008.47 1009.50 1010.42 1011.21 1011.89 1012.49 1013.02 1013.52 1013.98 1014.40 1014.75 1015.01 1015.16 1015.20 1015.15 1015.03 1014.86 1014.69 1014.53 1014.40 1014.28 1014.17 1014.04 1013.88 1013.67 1013.42 1013.13 1012.84 1012.54 1012.27 1012.01
1008.14 1008.47 1008.81 1009.05 1009.08 1008.84 1008.30 1007.50 1006.52 1005.51 1004.60 1003.94 1003.61 1003.68 1004.13 1004.90 1005.90 1007.01 1008.14 1009.20 1010.14 1010.94 1011.62 1012.20 1012.71 1013.19 1013.63 1014.04 1014.39 1014.66 1014.84 1014.91 1014.88 1014.79 1014.65 1014.50 1014.35 1014.23 1014.13 1014.02 1013.90 1013.75 1013.54 1013.29 1012.99 1012.67 1012.34 1012.03 1011.73
1007.93 1008.26 1008.61 1008.85 1008.89 1008.66 1008.13 1007.33 1006.36 1005.35 1004.44 1003.78 1003.45 1003.51 1003.95 1004.72 1005.73 1006.86 1007.99 1009.05 1009.98 1010.77 1011.42 1011.96 1012.44 1012.87 1013.28 1013.66 1014.00 1014.27 1014.47 1014.57 1014.58 1014.53 1014.43 1014.32 1014.21 1014.12 1014.04 1013.96 1013.85 1013.71 1013.50 1013.23 1012.91 1012.55 1012.17 1011.80 1011.45
1007.79 1008.13 1008.49 1008.74 1008.80 1008.58 1008.08 1007.31 1006.37 1005.38 1004.49 1003.84 1003.52 1003.57 1004.01 1004.77 1005.76 1006.87 1007.99 1009.03 1009.93 1010.69 1011.30 1011.80 1012.23 1012.61 1012.97 1013.32 1013.64 1013.91 1014.12 1014.25 1014.31 1014.31 1014.26 1014.20 1014.14 1014.09 1014.04 1013.99 1013.91 1013.78 1013.58 1013.30 1012.95 1012.55 1012.12 1011.68 1011.27
1007.70 1008.05 1008.41 1008.67 1008.75 1008.55 1008.08 1007.35 1006.46 1005.51 1004.66 1004.03 1003.72 1003.78 1004.20 1004.93 1005.89 1006.96 1008.05 1009.05 1009.92 1010.64 1011.22 1011.68 1012.06 1012.40 1012.73 1013.04 1013.35 1013.61 1013.84 1014.00 1014.09 1014.14 1014.15 1014.15 1014.14 1014.14 1014.14 1014.12 1014.07 1013.96 1013.76 1013.48 1013.12 1012.68 1012.21 1011.72 1011.25
Thickness
5808 5814 5818 5815 5808 5805 5797 5801 5807 5806 5808 5814 5815 5811 5805 5801 5794 5787 5808 5816 5812 5809 5801 5792 5787 5784 5781 5780 5778 5777 5776 5775 5773 5772 5770 5769 5768 5767 5766 5765 5764 5764 5763 5762 5761 5761 5760 5760 5759
5815 5816 5813 5811 5802 5792 5792 5803 5802 5805 5810 5815 5814 5810 5805 5804 5807 5805 5808 5809 5809 5805 5798 5792 5784 5781 5779 5777 5776 5774 5773 5772 5770 5769 5767 5766 5765 5764 5763 5762 5761 5761 5760 5759 5759 5758 5758 5757 5757
5814 5815 5809 5807 5797 5792 5791 5801 5803 5809 5815 5812 5808 5810 5805 5801 5805 5805 5808 5807 5805 5801 5795 5788 5782 5778 5776 5774 5773 5772 5771 5769 5768 5766 5764 5764 5762 5761 5761 5760 5759 5758 5757 5757 5756 5755 5755 5754 5754
5812 5809 5808 5799 5791 5797 5800 5803 5807 5806 5809 5811 5808 5803 5806 5807 5807 5808 5807 5805 5801 5798 5794 5786 5779 5776 5773 5771 5770 5769 5768 5767 5765 5763 5762 5761 5760 5759 5758 5757 5756 5755 5755 5754 5753 5752 5752 5752 5752
5811 5805 5794 5791 5792 5799 5805 5807 5807 5802 5802 5806 5806 5799 5799 5806 5810 5808 5804 5802 5798 5796 5792 5784 5776 5772 5770 5768 5767 5766 5765 5764 5762 5761 5759 5758 5757 5755 5755 5754 5753 5753 5752 5751 5750 5750 5749 5748 5749
5802 5800 5787 5784 5789 5797 5804 5808 5806 5802 5803 5804 5803 5798 5798 5805 5804 5804 5803 5799 5797 5794 5789 5781 5773 5770 5767 5765 5764 5763 5761 5760 5759 5757 5756 5754 5753 5753 5752 5752 5751 5750 5750 5749 5747 5747 5746 5746 5746
5796 5791 5784 5787 5787 5790 5798 5807 5803 5800 5798 5801 5804 5797 5798 5800 5802 5802 5800 5797 5794 5791 5786 5780 5774 5768 5764 5762 5761 5760 5758 5757 5755 5754 5752 5751 5750 5750 5749 5749 5748 5748 5747 5746 5745 5744 5743 5743 5743
5802 5793 5785 5786 5784 5786 5799 5802 5803 5800 5798 5807 5806 5794 5793 5796 5800 5799 5795 5792 5789 5786 5783 5779 5774 5769 5766 5762 5758 5757 5755 5753 5752 5751 5749 5748 5748 5747 5747 5746 5745 5744 5744 5743 5742 5741 5740 5740 5740
5798 5785 5781 5785 5785 5788 5798 5795 5801 5807 5802 5801 5803 5800 5800 5800 5797 5791 5786 5783 5780 5778 5777 5775 5773 5769 5766 5763 5758 5755 5752 5750 5749 5748 5746 5746 5748 5748 5745 5744 5741 5741 5741 5740 5739 5738 5738 5738 5738
5790 5780 5784 5793 5795 5792 5794 5793 5795 5796 5793 5794 5797 5798 5798 5794 5790 5784 5780 5776 5773 5772 5772 5771 5769 5766 5763 5761 5757 5754 5753 5749 5749 5747 5745 5745 5744 5743 5743 5740 5738 5738 5737 5737 5736 5736 5736 5737 5740
5787 5782 5789 5792 5794 5792 5789 5791 5796 5790 5786 5792 5792 5794 5793 5789 5786 5782 5779 5777 5773 5771 5769 5768 5766 5762 5760 5758 5755 5754 5751 5747 5746 5744 5742 5741 5741 5740 5739 5739 5737 5736 5736 5737 5736 5736 5738 5739 5739
5783 5784 5788 5789 5791 5788 5786 5788 5787 5788 5789 5798 5799 5798 5793 5787 5785 5781 5778 5776 5773 5769 5766 5765 5762 5759 5757 5755 5753 5750 5748 5745 5744 5741 5739 5739 5738 5737 5737 5736 5737 5736 5736 5735 5736 5736 5735 5735 5736
5777 5780 5784 5787 5787 5787 5785 5783 5783 5786 5794 5797 5796 5794 5790 5787 5785 5783 5780 5776 5772 5767 5764 5761 5759 5755 5752 5749 5748 5747 5745 5743 5740 5738 5736 5735 5736 5735 5734 5733 5732 5734 5734 5734 5733 5733 5732 5733 5733
5779 5779 5781 5783 5784 5785 5779 5781 5781 5785 5792 5791 5789 5788 5788 5786 5783 5779 5776 5772 5769 5764 5761 5760 5756 5752 5749 5746 5744 5743 5743 5739 5738 5736 5734 5732 5733 5732 5730 5729 5728 5729 5729 5730 5730 5730 5729 5730 5730
5777 5771 5774 5779 5781 5781 5778 5772 5777 5787 5788 5784 5784 5784 5783 5783 5781 5776 5773 5769 5766 5762 5759 5756 5754 5750 5746 5744 5742 5741 5740 5738 5736 5734 5731 5729 5729 5727 5727 5726 5726 5726 5725 5725 5726 5726 5727 5726 5727
5771 5765 5763 5774 5777 5777 5768 5762 5780 5787 5783 5779 5781 5781 5779 5778 5777 5775 5771 5766 5764 5760 5756 5753 5753 5748 5744 5741 5739 5739 5737 5735 5734 5731 5729 5726 5725 5723 5723 5723 5724 5722 5722 5722 5723 5723 5723 5722 5723
5762 5757 5759 5766 5775 5772 5766 5763 5776 5783 5780 5776 5778 5778 5775 5773 5772 5772 5769 5765 5761 5757 5753 5750 5749 5746 5743 5740 5737 5736 5733 5732 5730 5729 5727 5724 5722 5720 5720 5721 5719 5718 5719 5719 5720 5719 5718 5717 5717
5753 5757 5757 5758 5769 5766 5761 5763 5773 5777 5775 5774 5774 5774 5771 5768 5767 5768 5766 5763 5759 5755 5751 5748 5746 5743 5740 5738 5735 5733 5730 5729 5728 5726 5723 5721 5720 5718 5718 5718 5715 5716 5715 5714 5714 5713 5713 5713 5712
5758 5754 5751 5758 5768 5761 5757 5760 5768 5773 5771 5770 5770 5770 5767 5766 5766 5764 5761 5759 5755 5751 5747 5745 5742 5740 5737 5735 5732 5729 5726 5725 5725 5723 5720 5719 5717 5716 5715 5715 5713 5712 5712 5710 5711 5710 5709 5709 5709
5752 5747 5750 5757 5763 5757 5754 5757 5767 5770 5768 5768 5768 5766 5764 5763 5761 5758 5756 5754 5751 5747 5745 5743 5740 5738 5735 5733 5730 5727 5724 5723 5722 5721 5718 5716 5714 5713 5713 5711 5711 5709 5708 5707 5706 5705 5706 5705 5704
5747 5747 5750 5749 5754 5756 5751 5751 5760 5767 5768 5766 5766 5767 5766 5761 5757 5754 5751 5750 5748 5745 5742 5741 5738 5735 5733 5730 5728 5724 5720 5719 5718 5716 5715 5713 5712 5710 5708 5708 5707 5706 5706 5705 5702 5702 5701 5700 5700
5741 5755 5752 5748 5742 5745 5747 5737 5754 5761 5759 5759 5761 5763 5763 5761 5757 5752 5749 5747 5745 5743 5741 5738 5735 5732 5729 5727 5725 5722 5718 5716 5714 5713 5712 5710 5708 5707 5705 5704 5703 5703 5703 5701 5701 5700 5699 5697 5697
5748 5755 5749 5746 5743 5740 5745 5736 5750 5759 5752 5755 5758 5759 5759 5759 5755 5750 5748 5745 5743 5740 5738 5735 5731 5728 5726 5724 5722 5718 5717 5715 5713 5711 5708 5706 5705 5703 5702 5701 5699 5698 5699 5698 5697 5695 5695 5695 5694
5751 5747 5744 5744 5742 5726 5738 5732 5736 5752 5750 5752 5755 5755 5754 5754 5752 5749 5746 5743 5740 5738 5736 5733 5729 5724 5722 5721 5719 5716 5714 5711 5709 5706 5705 5704 5702 5701 5699 5698 5696 5695 5695 5694 5693 5692 5691 5691 5689
5743 5731 5721 5721 5724 5728 5743 5733 5735 5748 5751 5751 5750 5750 5750 5750 5748 5745 5742 5740 5737 5735 5733 5731 5726 5721 5720 5718 5715 5714 5711 5709 5706 5705 5703 5702 5701 5698 5696 5695 5692 5692 5691 5690 5689 5687 5688 5687 5685
5738 5734 5717 5709 5717 5731 5736 5728 5741 5748 5749 5749 5749 5749 5747 5746 5745 5742 5740 5737 5735 5732 5730 5727 5724 5720 5718 5715 5713 5711 5709 5708 5706 5703 5703 5700 5699 5698 5694 5692 5690 5689 5688 5688 5686 5686 5684 5683 5681
5734 5733 5741 5728 5727 5721 5729 5733 5739 5744 5742 5742 5742 5742 5741 5742 5740 5739 5737 5734 5731 5729 5726 5724 5721 5717 5715 5713 5711 5708 5707 5706 5704 5701 5700 5699 5696 5695 5692 5691 5689 5688 5686 5685 5684 5683 5681 5679 5679
5741 5739 5730 5721 5706 5705 5721 5724 5729 5732 5734 5737 5737 5737 5737 5738 5737 5735 5733 5730 5728 5726 5724 5722 5719 5715 5713 5711 5709 5707 5705 5703 5701 5700 5697 5696 5694 5692 5690 5689 5687 5686 5684 5683 5681 5680 5678 5677 5675
5728 5727 5726 5724 5720 5705 5705 5719 5738 5734 5734 5734 5735 5736 5735 5734 5733 5731 5728 5726 5724 5723 5721 5718 5715 5712 5710 5709 5707 5704 5702 5700 5698 5697 5695 5693 5691 5689 5688 5686 5685 5683 5682 5680 5678 5678 5676 5675 5673
5734 5730 5724 5709 5708 5712 5710 5715 5739 5736 5735 5733 5732 5732 5732 5731 5730 5727 5724 5722 5720 5718 5717 5714 5712 5710 5708 5706 5703 5700 5699 5697 5695 5694 5692 5691 5688 5686 5685 5683 5682 5681 5680 5678 5676 5675 5674 5673 5670